Weather History for Henderson, NV

Change the Weather History Date:

Sunday, March 9, 2014

  Actual Average (KLAS) Record (KLAS)
Temperature  
Mean Temperature 58 °F 58 °F  
Max Temperature 72 °F 69 °F 87 °F (1989)
Min Temperature 45 °F 48 °F 27 °F (1964)
Degree Days  
Heating Degree Days 6 7  
Month to date heating degree days 71  
Since 1 July heating degree days 1762  
Cooling Degree Days 0 1  
Month to date cooling degree days 1  
Year to date cooling degree days 2  
Growing Degree Days 8 (Base 50)    
Moisture  
Dew Point 18 °F    
Average Humidity 22    
Maximum Humidity 42    
Minimum Humidity 9    
Precipitation  
Precipitation 0.00 in 0.01 in 0.03 in (1962)
Month to date precipitation 0.18  
Year to date precipitation 1.48  
Snow  
Snow 0.00 in 0.00 in T in (1962)
Month to date snowfall 0.0  
Since 1 July snowfall 0.3  
Snow Depth -    
Sea Level Pressure  
Sea Level Pressure 30.23 in    
Wind  
Wind Speed 6 mph (SE)    
Max Wind Speed 10 mph    
Max Gust Speed -    
Visibility 10 miles    
Events      
T = Trace of Precipitation, MM = Missing Value Source: NWS Daily Summary

Daily Weather History Graph

Daily Weather History Graph

Search for Another Location

Airport:

Trip Planner

Search our weather history database for the weather conditions in past years. The results will help you decide how hot, cold, wet, or windy it might be!

Date:

Astronomy

Mar. 09, 2014 Rise Set
Actual Time 6:59 AM PDT 6:42 PM PDT
Civil Twilight 6:34 AM PDT 7:08 PM PDT
Nautical Twilight 6:04 AM PDT 7:38 PM PDT
Astronomical Twilight 5:34 AM PDT 8:07 PM PDT
Moon 12:47 PM PDT (3/9) 3:20 AM PDT (3/9)
Length of Visible Light 12h 34m
Length of Day
11h 43m
First Quarter, 62% of the Moon is Illuminated
Mar 9
First Quarter
Mar 16
Full
Mar 23
Last Quarter
Mar 30
New
Apr 7
First Quarter

Hourly Weather History & Observations

Time (PDT) Temp. Windchill Dew Point Humidity Pressure Visibility Wind Dir Wind Speed Gust Speed Precip Events Conditions
12:56 AM 47.8 °F - 22.1 °F 36% 30.29 in 10.0 mi SSE 8.1 mph - N/A   Clear
1:56 AM 46.9 °F - 21.0 °F 36% 30.29 in 10.0 mi South 8.1 mph - N/A   Clear
3:56 AM 47.8 °F - 22.1 °F 36% 30.29 in 10.0 mi SSE 10.4 mph - N/A   Clear
5:56 AM 45.9 °F 41.7 °F 21.0 °F 37% 30.31 in 10.0 mi South 8.1 mph - N/A   Clear
6:56 AM 45.0 °F 40.6 °F 23.0 °F 42% 30.32 in 10.0 mi SSE 8.1 mph - N/A   Clear
7:56 AM 47.8 °F - 22.1 °F 36% 30.33 in 10.0 mi South 5.8 mph - N/A   Clear
8:56 AM 56.8 °F - 22.1 °F 26% 30.35 in 10.0 mi Calm Calm - N/A   Clear
9:56 AM 61.9 °F - 22.1 °F 22% 30.34 in 10.0 mi Calm Calm - 0.00 in   Clear
10:56 AM 64.9 °F - 23.0 °F 20% 30.32 in 10.0 mi NNW 5.8 mph - N/A   Clear
11:56 AM 68.0 °F - 21.0 °F 17% 30.30 in 10.0 mi NNE 6.9 mph - N/A   Clear
12:56 PM 70.0 °F - 18.1 °F 14% 30.27 in 10.0 mi East 5.8 mph - N/A   Clear
1:56 PM 70.9 °F - 15.1 °F 12% 30.23 in 10.0 mi North 8.1 mph - N/A   Clear
2:56 PM 70.9 °F - 13.1 °F 11% 30.20 in 10.0 mi Calm Calm - N/A   Clear
3:56 PM 70.0 °F - 11.1 °F 10% 30.18 in 10.0 mi Calm Calm - N/A   Clear
4:56 PM 72.9 °F - 11.1 °F 9% 30.16 in 10.0 mi NNE 4.6 mph - N/A   Clear
5:56 PM 72.9 °F - 9.1 °F 9% 30.15 in 10.0 mi Calm Calm - N/A   Clear
6:56 PM 68.9 °F - 8.1 °F 9% 30.15 in 10.0 mi Calm Calm - N/A   Clear
7:56 PM 61.0 °F - 20.1 °F 21% 30.16 in 10.0 mi Calm Calm - N/A   Clear
8:56 PM 57.9 °F - 18.1 °F 21% 30.16 in 10.0 mi SSE 8.1 mph - N/A   Clear
9:56 PM 59.9 °F - 15.1 °F 17% 30.15 in 10.0 mi SSE 6.9 mph - N/A   Clear
10:56 PM 59.0 °F - 19.0 °F 21% 30.13 in 10.0 mi SSE 5.8 mph - N/A   Clear
11:56 PM 57.9 °F - 17.1 °F 20% 30.12 in 10.0 mi South 6.9 mph - N/A   Clear
12:56 AM 55.9 °F - 17.1 °F 22% 30.11 in 10.0 mi South 8.1 mph - N/A   Clear